Meteo pe oră la Bolshie Kokuzy

Astăzi, 10 Mai, Luni

Timp Temperatura Precipitaţii Vânt Presiune Umiditate
00:00 +16°C° 0 mm 3 m/s 753 mmHg 77%
01:00 +15°C° 0.1 mm 2 m/s 754 mmHg 79%
02:00 +15°C° 0.1 mm 2 m/s 754 mmHg 81%
03:00 +15°C° 0.1 mm 2 m/s 754 mmHg 82%
04:00 +15°C° 0.1 mm 2 m/s 755 mmHg 83%
05:00 +15°C° 0.1 mm 2 m/s 755 mmHg 83%
06:00 +15°C° 0.1 mm 2 m/s 756 mmHg 83%
07:00 +17°C° 0 mm 3 m/s 756 mmHg 76%
08:00 +18°C° 0 mm 3 m/s 756 mmHg 70%
09:00 +19°C° 0 mm 3 m/s 757 mmHg 64%
10:00 +20°C° 0 mm 3 m/s 757 mmHg 60%
11:00 +22°C° 0 mm 3 m/s 757 mmHg 56%
12:00 +24°C° 0 mm 3 m/s 758 mmHg 52%
13:00 +24°C° 0 mm 2 m/s 758 mmHg 50%
14:00 +25°C° 0 mm 2 m/s 758 mmHg 48%
15:00 +25°C° 0 mm 2 m/s 758 mmHg 46%
16:00 +24°C° 0 mm 2 m/s 759 mmHg 52%
17:00 +23°C° 0 mm 2 m/s 759 mmHg 57%
18:00 +21°C° 0 mm 3 m/s 759 mmHg 63%
19:00 +20°C° 0 mm 3 m/s 760 mmHg 67%
20:00 +18°C° 0 mm 3 m/s 760 mmHg 71%
21:00 +17°C° 0 mm 3 m/s 760 mmHg 76%
22:00 +16°C° 0 mm 3 m/s 760 mmHg 80%
23:00 +16°C° 0 mm 3 m/s 761 mmHg 84%

Mâine, 11 Mai, Marţi

Timp Temperatura Precipitaţii Vânt Presiune Umiditate
00:00 +14°C° 0 mm 3 m/s 761 mmHg 88%
01:00 +14°C° 0 mm 3 m/s 761 mmHg 87%
02:00 +13°C° 0 mm 3 m/s 761 mmHg 86%
03:00 +13°C° 0 mm 3 m/s 761 mmHg 85%
04:00 +14°C° 0 mm 3 m/s 762 mmHg 83%
05:00 +14°C° 0 mm 3 m/s 762 mmHg 81%
06:00 +14°C° 0 mm 3 m/s 762 mmHg 79%
07:00 +17°C° 0 mm 3 m/s 762 mmHg 72%
08:00 +19°C° 0 mm 4 m/s 763 mmHg 66%
09:00 +20°C° 0 mm 4 m/s 763 mmHg 59%
10:00 +21°C° 0 mm 4 m/s 763 mmHg 55%
11:00 +22°C° 0 mm 4 m/s 763 mmHg 51%
12:00 +25°C° 0 mm 4 m/s 763 mmHg 47%
13:00 +25°C° 0 mm 4 m/s 763 mmHg 46%
14:00 +25°C° 0 mm 4 m/s 763 mmHg 44%
15:00 +25°C° 0 mm 3 m/s 763 mmHg 43%
16:00 +24°C° 0 mm 3 m/s 763 mmHg 48%
17:00 +24°C° 0 mm 3 m/s 763 mmHg 53%
18:00 +22°C° 0 mm 3 m/s 764 mmHg 58%
19:00 +21°C° 0 mm 3 m/s 764 mmHg 59%
20:00 +20°C° 0 mm 2 m/s 764 mmHg 59%
21:00 +19°C° 0 mm 2 m/s 764 mmHg 59%
22:00 +18°C° 0 mm 2 m/s 764 mmHg 60%
23:00 +18°C° 0 mm 2 m/s 764 mmHg 61%

Poimâine, 12 Mai, Miercuri

Timp Temperatura Precipitaţii Vânt Presiune Umiditate
00:00 +17°C° 0 mm 2 m/s 764 mmHg 62%
01:00 +17°C° 0 mm 2 m/s 764 mmHg 64%
02:00 +16°C° 0 mm 2 m/s 764 mmHg 66%
03:00 +15°C° 0 mm 2 m/s 764 mmHg 68%
04:00 +16°C° 0 mm 2 m/s 764 mmHg 70%
05:00 +16°C° 0 mm 2 m/s 764 mmHg 71%
06:00 +17°C° 0 mm 2 m/s 765 mmHg 73%
07:00 +18°C° 0 mm 2 m/s 765 mmHg 67%
08:00 +20°C° 0 mm 3 m/s 765 mmHg 61%
09:00 +21°C° 0 mm 3 m/s 765 mmHg 54%
10:00 +22°C° 0 mm 4 m/s 765 mmHg 51%
11:00 +23°C° 0 mm 4 m/s 765 mmHg 49%
12:00 +25°C° 0 mm 4 m/s 765 mmHg 46%
13:00 +25°C° 0 mm 4 m/s 765 mmHg 45%
14:00 +25°C° 0 mm 4 m/s 764 mmHg 43%
15:00 +25°C° 0 mm 4 m/s 764 mmHg 42%
16:00 +25°C° 0 mm 3 m/s 764 mmHg 48%
17:00 +24°C° 0 mm 3 m/s 764 mmHg 53%
18:00 +22°C° 0 mm 3 m/s 764 mmHg 58%
19:00 +21°C° 0 mm 2 m/s 764 mmHg 60%
20:00 +19°C° 0 mm 2 m/s 764 mmHg 61%
21:00 +18°C° 0 mm 2 m/s 764 mmHg 62%
22:00 +18°C° 0 mm 1 m/s 764 mmHg 63%
23:00 +18°C° 0 mm 1 m/s 764 mmHg 64%

13 Mai, Joi

Timp Temperatura Precipitaţii Vânt Presiune Umiditate
00:00 +18°C° 0 mm 1 m/s 764 mmHg 65%
01:00 +16°C° 0 mm 1 m/s 764 mmHg 65%
02:00 +16°C° 0 mm 2 m/s 764 mmHg 65%
03:00 +16°C° 0 mm 2 m/s 764 mmHg 65%
04:00 +16°C° 0 mm 2 m/s 764 mmHg 66%
05:00 +17°C° 0 mm 2 m/s 764 mmHg 66%
06:00 +17°C° 0 mm 2 m/s 764 mmHg 67%
07:00 +19°C° 0 mm 3 m/s 764 mmHg 62%
08:00 +20°C° 0 mm 3 m/s 764 mmHg 56%
09:00 +22°C° 0 mm 4 m/s 764 mmHg 51%
10:00 +23°C° 0 mm 4 m/s 764 mmHg 46%
11:00 +23°C° 0 mm 5 m/s 764 mmHg 42%
12:00 +25°C° 0 mm 5 m/s 764 mmHg 38%
13:00 +25°C° 0 mm 5 m/s 764 mmHg 38%
14:00 +26°C° 0 mm 5 m/s 763 mmHg 37%
15:00 +26°C° 0 mm 5 m/s 763 mmHg 36%
16:00 +25°C° 0 mm 4 m/s 763 mmHg 42%
17:00 +24°C° 0 mm 3 m/s 763 mmHg 49%
18:00 +24°C° 0 mm 2 m/s 763 mmHg 55%
19:00 +21°C° 0 mm 2 m/s 763 mmHg 56%
20:00 +20°C° 0 mm 2 m/s 763 mmHg 57%
21:00 +18°C° 0 mm 2 m/s 763 mmHg 58%
22:00 +18°C° 0 mm 2 m/s 763 mmHg 59%
23:00 +17°C° 0 mm 2 m/s 763 mmHg 59%

14 Mai, Vineri

Timp Temperatura Precipitaţii Vânt Presiune Umiditate
00:00 +17°C° 0 mm 2 m/s 763 mmHg 59%
01:00 +17°C° 0 mm 2 m/s 763 mmHg 60%
02:00 +16°C° 0 mm 2 m/s 763 mmHg 60%
03:00 +16°C° 0 mm 2 m/s 763 mmHg 60%
04:00 +17°C° 0 mm 2 m/s 763 mmHg 62%
05:00 +17°C° 0 mm 2 m/s 763 mmHg 63%
06:00 +18°C° 0 mm 2 m/s 763 mmHg 64%
07:00 +19°C° 0 mm 3 m/s 763 mmHg 59%
08:00 +21°C° 0 mm 3 m/s 763 mmHg 53%
09:00 +23°C° 0 mm 4 m/s 763 mmHg 48%
10:00 +25°C° 0 mm 4 m/s 763 mmHg 45%
11:00 +25°C° 0 mm 5 m/s 763 mmHg 42%
12:00 +26°C° 0 mm 5 m/s 762 mmHg 39%
13:00 +27°C° 0 mm 5 m/s 762 mmHg 38%
14:00 +27°C° 0 mm 5 m/s 762 mmHg 38%
15:00 +27°C° 0 mm 5 m/s 762 mmHg 37%
16:00 +26°C° 0 mm 4 m/s 762 mmHg 43%
17:00 +25°C° 0 mm 4 m/s 761 mmHg 49%
18:00 +24°C° 0 mm 3 m/s 761 mmHg 54%
19:00 +22°C° 0 mm 3 m/s 761 mmHg 55%
20:00 +20°C° 0 mm 3 m/s 761 mmHg 56%
21:00 +19°C° 0 mm 3 m/s 761 mmHg 57%
22:00 +18°C° 0 mm 3 m/s 761 mmHg 58%
23:00 +18°C° 0 mm 3 m/s 760 mmHg 59%

15 Mai, Sâmbătă

Timp Temperatura Precipitaţii Vânt Presiune Umiditate
00:00 +18°C° 0 mm 3 m/s 760 mmHg 59%
01:00 +17°C° 0 mm 2 m/s 760 mmHg 60%
02:00 +17°C° 0 mm 2 m/s 760 mmHg 62%
03:00 +16°C° 0 mm 2 m/s 760 mmHg 63%
04:00 +17°C° 0 mm 2 m/s 760 mmHg 64%
05:00 +18°C° 0 mm 2 m/s 760 mmHg 64%
06:00 +19°C° 0 mm 2 m/s 760 mmHg 65%
07:00 +21°C° 0 mm 3 m/s 760 mmHg 59%
08:00 +22°C° 0 mm 4 m/s 760 mmHg 52%
09:00 +25°C° 0 mm 5 m/s 760 mmHg 46%
10:00 +26°C° 0 mm 5 m/s 760 mmHg 43%
11:00 +27°C° 0 mm 5 m/s 759 mmHg 41%
12:00 +28°C° 0 mm 5 m/s 759 mmHg 38%
13:00 +28°C° 0 mm 5 m/s 759 mmHg 37%
14:00 +28°C° 0 mm 5 m/s 759 mmHg 36%
15:00 +29°C° 0 mm 5 m/s 759 mmHg 35%
16:00 +27°C° 0 mm 4 m/s 758 mmHg 41%
17:00 +26°C° 0 mm 4 m/s 758 mmHg 48%
18:00 +25°C° 0 mm 3 m/s 758 mmHg 54%
19:00 +24°C° 0 mm 3 m/s 758 mmHg 55%
20:00 +21°C° 0 mm 3 m/s 757 mmHg 55%
21:00 +20°C° 0 mm 3 m/s 757 mmHg 56%
22:00 +19°C° 0 mm 3 m/s 757 mmHg 56%
23:00 +19°C° 0 mm 2 m/s 757 mmHg 56%
Arată mai mult

Formular de consimțământ

Meteoprog și furnizorii noștri de servicii pot stoca și accesa date personale, precum cookies, identificatori de dispozitiv sau alte tehnologii similare pe dispozitivul dumneavoastră și procesa astfel de date pentru a personaliza conținutul și reclamele, dar și pentru a oferi caracteristici de social media și pentru a analiza traficul.

  • Stocarea și/sau accesarea informațiilor pe dispozitivul dumneavoastră

    Cookies, identificatori de dispozitiv sau alte informații pot fi stocate sau accesate pe dispozitiv în scopurile indicate mai sus.

  • Reclame și conținut personalizat, evaluarea reclamelor și a conținutului, informații despre audiențe și dezvoltarea produselor

    Reclamele și conținutul pot fi personalizate pe baza unui profil. Pot fi adăugate date suplimentare pentru a personaliza mai bine reclamele și conținutul. Performanța reclamelor și conținutului poate fi măsurată. Pot fi obținute informații despre utilizatorii care au văzut reclamele și conținutul. Aceste date pot fi utilizate pentru a dezvolta sau îmbunătăți experiența utilizatorilor, sistemele și software-ul.

Dând clic pe ‘Sunt de acord’, permiteți utilizarea cookie-urilor menționate, a identificatorilor de dispozitiv, balizelor web sau altor tehnologii similare. Setările pot fi modificate din browser-ul dispozitivului dumneavoastră.

În anumite scopuri, interesele legitime pot prima asupra consimțământului. Puteți citi mai multe informații în acest sens în Politica privind Confidențialitatea Datelor și Cookie.